CW8392 Weather Reports


Display with metric or nautical units.
time (UTC)temp
F
wind
direction
speed
MPH
gust
MPH
rain 1hr
in
rain 24hr
in
rain mn
in
humidity
%
barometer
mb
20180622071352 57 13 0.0 0.0 0.00 0.00 0.00 62 1026.0
20180622070854 57 317 0.0 0.0 0.00 0.00 0.00 65 1025.9
20180622070406 57 302 0.0 0.0 0.00 0.00 0.00 63 1026.0
20180622065900 56 308 0.0 0.0 0.00 0.00 0.00 63 1025.8
20180622065340 56 286 0.0 0.0 0.00 0.00 0.00 65 1025.9
20180622064900 57 298 0.0 0.0 0.00 0.00 0.00 66 1025.7
20180622064352 57 336 0.0 0.0 0.00 0.00 0.00 67 1025.7
20180622063856 57 321 0.0 0.0 0.00 0.00 0.00 67 1025.6
20180622063357 57 327 0.0 0.0 0.00 0.00 0.00 65 1025.5
20180622062404 57 355 0.0 0.0 0.00 0.00 0.00 64 1025.6
20180622061904 56 355 0.0 0.0 0.00 0.00 0.00 64 1025.6
20180622061400 56 317 0.0 0.0 0.00 0.00 0.00 64 1025.6
20180622060859 56 304 0.0 0.0 0.00 0.00 0.00 65 1025.6
20180622060404 56 338 0.0 0.0 0.00 0.00 0.00 68 1025.5
20180622055903 56 330 0.0 0.0 0.00 0.00 0.00 66 1025.4
20180622054909 56 325 0.0 0.0 0.00 0.00 0.00 65 1025.3
20180622054412 56 319 0.0 0.0 0.00 0.00 0.00 66 1025.4
20180622053925 56 342 0.0 0.0 0.00 0.00 0.00 67 1025.4
20180622053426 56 280 0.0 0.0 0.00 0.00 0.00 68 1025.4
20180622052825 56 317 0.0 0.0 0.00 0.00 0.00 68 1025.5
20180622052330 56 340 0.0 0.0 0.00 0.00 0.00 69 1025.4
20180622051831 56 281 0.0 0.0 0.00 0.00 0.00 70 1025.4
20180622051332 56 289 0.0 0.0 0.00 0.00 0.00 70 1025.3
20180622050832 56 286 0.0 0.0 0.00 0.00 0.00 70 1025.3
20180622050316 56 324 0.0 0.0 0.00 0.00 0.00 69 1025.3
20180622045819 56 288 0.0 0.0 0.00 0.00 0.00 69 1025.1
20180622045321 56 294 0.0 0.0 0.00 0.00 0.00 69 1025.2
20180622044825 56 343 0.0 0.0 0.00 0.00 0.00 69 1025.1
20180622044335 56 360 0.0 0.0 0.00 0.00 0.00 69 1025.2
20180622043845 55 270 0.0 0.0 0.00 0.00 0.00 70 1025.0
20180622043345 55 325 0.0 0.0 0.00 0.00 0.00 70 1025.1
20180622042847 55 329 0.0 0.0 0.00 0.00 0.00 70 1025.0
20180622042330 55 303 0.0 0.0 0.00 0.00 0.00 72 1025.1
20180622041837 55 306 0.0 0.0 0.00 0.00 0.00 73 1025.1
20180622041357 55 309 0.0 0.0 0.00 0.00 0.00 74 1025.1
20180622040837 54 277 0.0 0.0 0.00 0.00 0.00 74 1025.1
20180622040342 54 296 0.0 0.0 0.00 0.00 0.00 75 1025.1
20180622035902 53 300 0.0 0.0 0.00 0.00 0.00 77 1025.0
20180622035402 53 311 0.0 0.0 0.00 0.00 0.00 78 1025.0
20180622034903 53 281 0.0 0.0 0.00 0.00 0.00 78 1025.0
20180622034355 53 298 0.0 0.0 0.00 0.00 0.00 78 1025.0
20180622033907 53 271 0.0 0.0 0.00 0.00 0.00 78 1025.0
20180622033401 52 268 0.0 0.0 0.00 0.00 0.00 78 1025.1
20180622032904 52 266 0.0 0.0 0.00 0.00 0.00 78 1025.1
20180622032404 52 313 0.0 0.0 0.00 0.00 0.00 78 1025.0
20180622031903 52 265 0.0 0.0 0.00 0.00 0.00 78 1025.1
20180622031410 52 286 0.0 0.0 0.00 0.00 0.00 79 1025.1
20180622030915 52 275 0.0 0.0 0.00 0.00 0.00 79 1025.0
20180622030411 52 291 0.0 0.0 0.00 0.00 0.00 79 1025.0
20180622025916 52 274 0.0 0.0 0.00 0.00 0.00 79 1025.0
20180622025418 52 293 0.0 0.0 0.00 0.00 0.00 79 1025.0
20180622024919 52 267 0.0 0.0 0.00 0.00 0.00 79 1025.1
20180622024410 52 246 0.0 0.0 0.00 0.00 0.00 79 1025.1
20180622023908 52 295 0.0 0.0 0.00 0.00 0.00 78 1025.1
20180622023411 52 315 0.0 0.0 0.00 0.00 0.00 78 1024.9
20180622022828 53 255 0.0 0.0 0.00 0.00 0.00 78 1025.0
20180622022332 53 269 0.0 0.0 0.00 0.00 0.00 77 1025.0
20180622021815 53 284 0.0 0.0 0.00 0.00 0.00 77 1025.1
20180622021319 53 277 0.0 0.0 0.00 0.00 0.00 76 1024.9
20180622020818 54 291 0.0 0.0 0.00 0.00 0.00 75 1024.9
20180622020321 54 289 0.0 0.0 0.00 0.00 0.00 74 1024.9
20180622015820 54 266 0.0 0.0 0.00 0.00 0.00 73 1025.0
20180622015328 55 275 0.0 0.0 0.00 0.00 0.00 73 1025.0
20180622014832 55 289 0.0 0.0 0.00 0.00 0.00 72 1025.0
20180622014325 55 311 0.0 0.0 0.00 0.00 0.00 71 1024.9
20180622013843 55 306 0.0 0.0 0.00 0.00 0.00 72 1024.9
20180622013346 55 269 0.0 0.0 0.00 0.00 0.00 72 1024.9
20180622012844 55 298 0.0 0.0 0.00 0.00 0.00 73 1024.9
20180622012343 55 290 0.0 0.0 0.00 0.00 0.00 73 1024.9
20180622011842 55 289 0.0 0.0 0.00 0.00 0.00 73 1024.9
20180622011347 55 314 0.0 0.0 0.00 0.00 0.00 72 1025.0
20180622010847 55 311 0.0 0.0 0.00 0.00 0.00 72 1024.9
20180622010347 55 338 0.0 0.0 0.00 0.00 0.00 71 1025.0
20180622005848 55 288 0.0 0.0 0.00 0.00 0.00 71 1025.0
20180622005343 55 313 0.0 0.0 0.00 0.00 0.00 71 1025.1
20180622004847 55 309 0.0 0.0 0.00 0.00 0.00 71 1025.1
20180622004355 55 311 0.0 0.0 0.00 0.00 0.00 71 1025.2
20180622003906 55 306 0.0 0.0 0.00 0.00 0.00 70 1025.3
20180622003410 55 327 0.0 0.0 0.00 0.00 0.00 70 1025.3
20180622002855 55 319 0.0 0.0 0.00 0.00 0.00 70 1025.4
20180622002412 55 311 0.0 0.0 0.00 0.00 0.00 70 1025.3
20180622001911 55 329 0.0 0.0 0.00 0.00 0.00 70 1025.4
20180622001415 55 338 0.0 0.0 0.00 0.00 0.00 69 1025.3
20180622000916 55 285 0.0 0.0 0.00 0.00 0.00 69 1025.4
20180622000416 55 315 0.0 0.0 0.00 0.00 0.00 68 1025.4
20180621235920 55 290 0.0 0.0 0.00 0.00 0.00 69 1025.3
20180621235404 55 270 0.0 0.0 0.00 0.00 0.00 69 1025.4
20180621234920 56 317 0.0 0.0 0.00 0.00 0.00 68 1025.4
20180621234415 55 311 0.0 0.0 0.00 0.00 0.00 68 1025.4
20180621233910 55 279 0.0 0.0 0.00 0.00 0.00 68 1025.4
20180621233432 55 280 0.0 0.0 0.00 0.00 0.00 68 1025.4
20180621232814 55 333 0.0 0.0 0.00 0.00 0.00 68 1025.4
20180621232312 55 336 0.0 0.0 0.00 0.00 0.00 69 1025.4
20180621231829 55 299 0.0 0.0 0.00 0.00 0.00 70 1025.5
20180621231333 54 308 0.0 0.0 0.00 0.00 0.00 71 1025.5
20180621230817 54 283 0.0 0.0 0.00 0.00 0.00 72 1025.5
20180621230337 54 318 0.0 0.0 0.00 0.00 0.00 73 1025.5
20180621225839 53 273 0.0 0.0 0.00 0.00 0.00 74 1025.5
20180621225339 53 304 0.0 0.0 0.00 0.00 0.00 75 1025.6
20180621224835 52 326 0.0 0.0 0.00 0.00 0.00 77 1025.5
20180621224329 52 301 0.0 0.0 0.00 0.00 0.00 78 1025.6
20180621223847 51 278 0.0 0.0 0.00 0.00 0.00 79 1025.6
20180621223349 51 296 0.0 0.0 0.00 0.00 0.00 79 1025.6
20180621222851 51 301 0.0 0.0 0.00 0.00 0.00 79 1025.6
20180621222338 50 302 0.0 0.0 0.00 0.00 0.00 79 1025.6
20180621221840 50 302 0.0 0.0 0.00 0.00 0.00 79 1025.6
20180621221355 50 302 0.0 0.0 0.00 0.00 0.00 78 1025.7
20180621220858 50 302 0.0 0.0 0.00 0.00 0.00 78 1025.7
20180621220402 50 302 0.0 0.0 0.00 0.00 0.00 78 1025.7
20180621215902 50 302 0.0 0.0 0.00 0.00 0.00 78 1025.8
20180621215406 50 302 0.0 0.0 0.00 0.00 0.00 78 1025.8
20180621214847 51 302 0.0 0.0 0.00 0.00 0.00 78 1025.8
20180621214356 51 304 0.0 0.0 0.00 0.00 0.00 77 1025.8
20180621213907 51 304 0.0 0.0 0.00 0.00 0.00 77 1025.8
20180621213410 51 304 0.0 0.0 0.00 0.00 0.00 77 1025.7
20180621212910 51 304 0.0 0.0 0.00 0.00 0.00 77 1025.9
20180621212412 51 304 0.0 0.0 0.00 0.00 0.00 77 1025.8
20180621211857 51 304 0.0 0.0 0.00 0.00 0.00 77 1025.9
20180621211400 51 304 0.0 0.0 0.00 0.00 0.00 77 1025.9
20180621210906 51 304 0.0 0.0 0.00 0.00 0.00 76 1025.9
20180621210406 52 303 0.0 0.0 0.00 0.00 0.00 76 1025.9
20180621205926 52 303 0.0 0.0 0.00 0.00 0.00 75 1025.9
20180621205427 52 300 0.0 0.0 0.00 0.00 0.00 74 1026.0
20180621204906 52 302 0.0 0.0 0.00 0.00 0.00 74 1026.0
20180621204414 53 302 0.0 0.0 0.00 0.00 0.00 73 1026.1
20180621203911 53 302 0.0 0.0 0.00 0.00 0.00 73 1026.0
20180621202312 53 293 0.0 0.0 0.00 0.00 0.00 70 1026.1
20180621201834 53 315 0.0 0.0 0.00 0.00 0.00 70 1026.2
20180621201334 53 316 0.0 0.0 0.00 0.00 0.00 69 1026.1
20180621200831 53 319 0.0 0.0 0.00 0.00 0.00 68 1026.1
20180621200321 53 310 0.0 0.0 0.00 0.00 0.00 68 1026.0
20180621195824 53 296 0.0 0.0 0.00 0.00 0.00 67 1026.0
20180621195323 54 304 0.0 0.0 0.00 0.00 0.00 67 1025.9
20180621194843 54 285 0.0 0.0 0.00 0.00 0.00 69 1025.9
20180621194334 54 311 0.0 0.0 0.00 0.00 0.00 69 1025.8
20180621193842 54 324 0.0 0.0 0.00 0.00 0.00 69 1025.8
20180621193340 54 331 0.0 0.0 0.00 0.00 0.00 69 1025.8
20180621192841 54 304 0.0 0.0 0.00 0.00 0.00 69 1025.7
20180621192341 54 333 0.0 0.0 0.00 0.00 0.00 68 1025.7
20180621191843 55 309 0.0 0.0 0.00 0.00 0.00 68 1025.7
20180621191343 55 298 0.0 0.0 0.00 0.00 0.00 68 1025.7
20180621190845 55 304 0.0 0.0 0.00 0.00 0.00 68 1025.7
20180621190343 55 304 0.0 0.0 0.00 0.00 0.00 68 1025.5
20180621185859 55 324 0.0 0.0 0.00 0.00 0.00 68 1025.6
20180621185400 56 334 0.0 0.0 0.00 0.00 0.00 67 1025.5
20180621184901 56 311 0.0 0.0 0.00 0.00 0.00 68 1025.5
20180621184357 55 319 0.0 0.0 0.00 0.00 0.00 69 1025.6
20180621183851 55 309 0.0 0.0 0.00 0.00 0.00 69 1025.5
20180621183357 56 5 0.0 0.0 0.00 0.00 0.00 69 1025.4
20180621182912 56 317 0.0 0.0 0.00 0.00 0.00 69 1025.4
20180621182417 56 329 0.0 0.0 0.00 0.00 0.00 69 1025.4
20180621181918 56 325 0.0 0.0 0.00 0.00 0.00 68 1025.4
20180621181418 56 313 0.0 0.0 0.00 0.00 0.00 66 1025.4
20180621180917 57 327 0.0 0.0 0.00 0.00 0.00 65 1025.4
20180621180419 57 289 0.0 0.0 0.00 0.00 0.00 66 1025.4
20180621175904 57 305 0.0 0.0 0.00 0.00 0.00 66 1025.3
20180621175424 58 306 0.0 0.0 0.00 0.00 0.00 64 1025.2
20180621174905 58 329 0.0 0.0 0.00 0.00 0.00 64 1025.2
20180621174419 58 347 0.0 0.0 0.00 0.00 0.00 64 1025.1
20180621173912 58 21 0.0 0.0 0.00 0.00 0.00 66 1025.2
20180621173315 58 247 0.0 0.0 0.00 0.00 0.00 67 1025.2
20180621172835 58 360 0.0 0.0 0.00 0.00 0.00 66 1025.1
20180621172329 58 348 0.0 0.0 0.00 0.00 0.00 66 1025.1
20180621171834 57 341 0.0 0.0 0.00 0.00 0.00 65 1025.0
20180621171336 57 269 0.0 0.0 0.00 0.00 0.00 65 1025.0
20180621170837 57 335 0.0 0.0 0.00 0.00 0.00 67 1025.1
20180621170341 57 325 0.0 0.0 0.00 0.00 0.00 66 1025.1
20180621165821 57 327 0.0 0.0 0.00 0.00 0.00 66 1025.0
20180621165345 57 298 0.0 0.0 0.00 0.00 0.00 65 1025.1
20180621164841 57 298 0.0 0.0 0.00 0.00 0.00 65 1025.0
20180621164334 58 334 0.0 0.0 0.00 0.00 0.00 65 1024.9
20180621163831 58 345 0.0 0.0 0.00 0.00 0.00 64 1024.9
20180621163333 58 299 0.0 0.0 0.00 0.00 0.00 64 1024.9
20180621162853 58 355 0.0 0.0 0.00 0.00 0.00 64 1024.8
20180621162334 58 311 0.0 0.0 0.00 0.00 0.00 63 1024.7
20180621161836 58 334 0.0 0.0 0.00 0.00 0.00 61 1024.7
20180621161338 58 301 0.0 0.0 0.00 0.00 0.00 61 1024.7
20180621160840 58 279 0.0 0.0 0.00 0.00 0.00 62 1024.7
20180621160346 58 308 0.0 0.0 0.00 0.00 0.00 61 1024.6
20180621155849 58 327 0.0 0.0 0.00 0.00 0.00 63 1024.6
20180621155357 57 345 0.0 0.0 0.00 0.00 0.00 65 1024.5
20180621154900 57 327 0.0 0.0 0.00 0.00 0.00 65 1024.4
20180621154352 57 5 0.0 0.0 0.00 0.00 0.00 65 1024.6
20180621153909 57 12 0.0 0.0 0.00 0.00 0.00 66 1024.5
20180621153406 58 310 0.0 0.0 0.00 0.00 0.00 66 1024.5
20180621152904 58 320 0.0 0.0 0.00 0.00 0.00 66 1024.4
20180621152401 58 311 0.0 0.0 0.00 0.00 0.00 65 1024.2
20180621151905 58 323 0.0 0.0 0.00 0.00 0.00 65 1024.3
20180621151401 58 315 0.0 0.0 0.00 0.00 0.00 66 1024.3
20180621150923 59 319 0.0 0.0 0.00 0.00 0.00 66 1024.0
20180621150421 59 284 0.0 0.0 0.00 0.00 0.00 66 1024.0
20180621145918 59 347 0.0 0.0 0.00 0.00 0.00 64 1023.9
20180621144905 59 318 0.0 0.0 0.00 0.00 0.00 64 1023.7
20180621144412 59 317 0.0 0.0 0.00 0.00 0.00 64 1023.7
20180621143929 59 309 0.0 0.0 0.00 0.00 0.00 64 1023.7
20180621143452 59 317 0.0 0.0 0.00 0.00 0.00 63 1023.6
20180621143319 59 11 0.0 0.0 0.00 0.00 0.00 63 1023.7
20180621142821 59 296 0.0 0.0 0.00 0.00 0.00 66 1023.6
20180621142323 59 301 0.0 0.0 0.00 0.00 0.00 66 1023.5
20180621141822 58 325 0.0 0.0 0.00 0.00 0.00 66 1023.5
20180621141317 58 299 0.0 0.0 0.00 0.00 0.00 67 1023.4
20180621140821 58 346 0.0 0.0 0.00 0.00 0.00 67 1023.4
20180621140326 58 340 0.0 0.0 0.00 0.00 0.00 67 1023.3
20180621135828 58 342 0.0 0.0 0.00 0.00 0.00 67 1023.3
20180621135331 58 334 0.0 0.0 0.00 0.00 0.00 68 1023.4
20180621134829 58 323 0.0 0.0 0.00 0.00 0.00 68 1023.3
20180621134339 58 297 0.0 0.0 0.00 0.00 0.00 67 1023.3
20180621133831 58 246 0.0 0.0 0.00 0.00 0.00 67 1023.2
20180621133336 57 297 0.0 0.0 0.00 0.00 0.00 66 1023.3
20180621132334 57 298 0.0 0.0 0.00 0.00 0.00 67 1023.3
20180621131839 57 279 0.0 0.0 0.00 0.00 0.00 67 1023.2
20180621131343 57 304 0.0 0.0 0.00 0.00 0.00 66 1023.2
20180621130903 57 314 0.0 0.0 0.00 0.00 0.00 65 1023.2
20180621130402 58 323 0.0 0.0 0.00 0.00 0.00 63 1023.1
20180621125902 58 324 0.0 0.0 0.00 0.00 0.00 64 1023.0
20180621125401 58 316 0.0 0.0 0.00 0.00 0.00 63 1023.0
20180621124902 58 5 0.0 0.0 0.00 0.00 0.00 63 1023.0
20180621124359 58 284 0.0 0.0 0.00 0.00 0.00 63 1022.8
20180621123853 58 347 0.0 0.0 0.00 0.00 0.00 62 1022.7
20180621123411 58 315 0.0 0.0 0.00 0.00 0.00 63 1022.7
20180621122909 58 333 0.0 0.0 0.00 0.00 0.00 61 1022.6
20180621122411 59 313 0.0 0.0 0.00 0.00 0.00 60 1022.5
20180621121913 59 332 0.0 0.0 0.00 0.00 0.00 59 1022.5
20180621121410 59 333 0.0 0.0 0.00 0.00 0.00 58 1022.4
20180621120912 59 304 0.0 0.0 0.00 0.00 0.00 59 1022.5
20180621120410 59 325 0.0 0.0 0.00 0.00 0.00 59 1022.4
20180621115912 59 327 0.0 0.0 0.00 0.00 0.00 59 1022.3
20180621115406 59 286 0.0 0.0 0.00 0.00 0.00 59 1022.3
20180621114905 59 250 0.0 0.0 0.00 0.00 0.00 58 1022.2
20180621114417 59 323 0.0 0.0 0.00 0.00 0.00 58 1022.2
20180621113930 59 319 0.0 0.0 0.00 0.00 0.00 58 1022.2
20180621113307 59 261 0.0 0.0 0.00 0.00 0.00 57 1022.2
20180621112832 59 355 0.0 0.0 0.00 0.00 0.00 56 1022.0
20180621112310 59 317 0.0 0.0 0.00 0.00 0.00 56 1022.0
20180621111823 59 307 0.0 0.0 0.00 0.00 0.00 57 1022.0
20180621111323 59 267 0.0 0.0 0.00 0.00 0.00 57 1021.8
20180621110824 59 302 0.0 0.0 0.00 0.00 0.00 56 1021.8
20180621110322 59 351 0.0 0.0 0.00 0.00 0.00 58 1021.7
20180621105845 60 315 0.0 0.0 0.00 0.00 0.00 58 1021.7
20180621105345 59 305 0.0 0.0 0.00 0.00 0.00 59 1021.6
20180621104840 59 286 0.0 0.0 0.00 0.00 0.00 59 1021.6
20180621104333 60 323 0.0 0.0 0.00 0.00 0.00 56 1021.5
20180621103843 60 271 0.0 0.0 0.00 0.00 0.00 58 1021.5
20180621103345 60 269 0.0 0.0 0.00 0.00 0.00 56 1021.4
20180621102844 59 291 0.0 0.0 0.00 0.00 0.00 57 1021.5
20180621102348 59 302 0.0 0.0 0.00 0.00 0.00 58 1021.4
20180621101848 59 305 0.0 0.0 0.00 0.00 0.00 60 1021.2
20180621101350 59 321 0.0 0.0 0.00 0.00 0.00 60 1021.2
20180621100852 59 292 0.0 0.0 0.00 0.00 0.00 61 1021.2
20180621100353 58 344 0.0 0.0 0.00 0.00 0.00 62 1021.2
20180621095850 59 345 0.0 0.0 0.00 0.00 0.00 61 1021.1
20180621095353 59 305 0.0 0.0 0.00 0.00 0.00 61 1021.0
20180621094853 59 290 0.0 0.0 0.00 0.00 0.00 60 1021.1
20180621094404 59 311 0.0 0.0 0.00 0.00 0.00 59 1020.9
20180621093911 59 290 0.0 0.0 0.00 0.00 0.00 59 1020.8
20180621093414 59 323 0.0 0.0 0.00 0.00 0.00 60 1020.7
20180621092912 59 325 0.0 0.0 0.00 0.00 0.00 60 1020.6
20180621092413 59 280 0.0 0.0 0.00 0.00 0.00 58 1020.5
20180621091906 59 321 0.0 0.0 0.00 0.00 0.00 58 1020.6
20180621090919 59 309 0.0 0.0 0.00 0.00 0.00 62 1020.2
20180621090420 59 320 0.0 0.0 0.00 0.00 0.00 60 1020.3
20180621085923 59 274 0.0 0.0 0.00 0.00 0.00 61 1020.1
20180621085418 59 326 0.0 0.0 0.00 0.00 0.00 62 1020.1
20180621084916 59 294 0.0 0.0 0.00 0.00 0.00 65 1019.9
20180621084428 59 333 0.0 0.0 0.00 0.00 0.00 64 1019.8
20180621083311 59 309 0.0 0.0 0.00 0.00 0.00 60 1019.7
20180621082832 58 298 0.0 0.0 0.00 0.00 0.00 62 1019.5
20180621082327 59 313 0.0 0.0 0.00 0.00 0.00 64 1019.4
20180621081826 59 300 0.0 0.0 0.00 0.00 0.00 67 1019.5
20180621081324 58 339 0.0 0.0 0.00 0.00 0.00 66 1019.3
20180621080827 58 300 0.0 0.0 0.00 0.00 0.00 66 1019.3
20180621080326 58 317 0.0 0.0 0.00 0.00 0.00 66 1019.2
20180621075827 58 310 0.0 0.0 0.00 0.00 0.00 67 1019.3
20180621075329 58 321 0.0 0.0 0.00 0.00 0.00 66 1019.1
20180621074825 58 349 0.0 0.0 0.00 0.00 0.00 67 1019.0
20180621074330 58 321 0.0 0.0 0.00 0.00 0.00 69 1019.0
20180621073844 58 312 0.0 0.0 0.00 0.00 0.00 70 1018.9
20180621073347 58 293 0.0 0.0 0.00 0.00 0.00 70 1018.9
20180621072851 58 292 0.0 0.0 0.00 0.00 0.00 69 1018.9
20180621072354 58 333 0.0 0.0 0.00 0.00 0.00 69 1018.8
20180621071854 57 304 0.0 0.0 0.00 0.00 0.00 72 1018.8